COSMOS 2251 DEB, 34728

Orbit data source: Space-Track

COSMOS 2251 DEB, 34728 is space debris in LEO originally from a launch on Wed, 16 Jun 1993 UTC launched from the Plesetsk Missile And Space Complex (PKMTR). The debris from Iridium 33, an American commercial communications satellite, has been tracked extensively since its accidental collision with the defunct Russian satellite Cosmos 2251 in 2009. This event, occurring at high speed in low Earth orbit (LEO), generated thousands of pieces of space debris, significantly increasing the risk of further collisions. The Iridium 33 debris cloud has impacted space traffic management and orbital debris mitigation strategies, making it a subject of ongoing study in space situational awareness.

Loading next visibility...
Identifier
34728, 1993-036YW
Orbit
LEO
Country
Flag of CISCIS
Related business
Manufacturer
Unknown
Mission
Spacecraft
Bus & Motor
Unknown
Mass
Unknown
Launch date (UTC)
1993-06-16 (32 years ago)
Launch vehicle
Unknown
Launch site
Plesetsk Missile And Space Complex (PKMTR)
Object type
Payload
Rocket body
Debris
Shape & HBR
Unknown shape, 0.1 m
Radar Cross Section
Small (<0.1 m²)

Expand to show TLE details & history
Last TLE update: 4 days ago

TLE from 4 days ago
0 COSMOS 2251 DEB
1 34728U 93036YW  25289.46743716  .00005175  00000-0  85373-3 0  9996
2 34728  74.0202   3.0267 0042088 177.8590 182.2770 14.70118399879585
Epoch: 2025-10-16T11:13Z
TLE epoch observation values (Epoch: 2025-10-16T11:13:06.570Z)
Latitude
Longitude
169.52259°
Altitude
692.949 km
Speed
7.494 km/s
True Right ascension
00h 12m 06s
True Declination
0° 00' 00"
Sunlit
Object was in full shadow at epoch
Visualization orbit readout
Latitude
Unknown
Longitude
Unknown
Altitude
Unknown
Speed
Unknown
Apparent Right ascension
Unknown
Apparent Declination
Unknown
Sunlit
N/A
Visualization observer readout
Local Sidereal Time
01:01:11
Azimuth
Unknown
Elevation
Unknown
Doppler factor
Unknown
Orbital elements
Apogee altitude
687.893 km
Perigee altitude
628.663 km
Semi-major axis
7,036.415 km
Eccentricity
0.00421
Inclination
74.0202°
RAAN
3.0267°
Arg. of periapsis
177.859°
True anomaly
182.25794°
Mean anomaly
182.277°
Eccentric anomaly
182.26746°
Mean motion
3.67719 °/min
Orbital period
97.9 mins
BSTAR
0.00085373
Loading maneuver chart data...
Computing Atmospheric mass density...

Documentation

Showing up to 5 results
|